Tracking 30685 objects as of 18-Jun-2025
HD Live streaming from Space Station
objects crossing your sky now

STARLINK-30294

Track STARLINK-30294 now!
10-day predictions
STARLINK-30294 is classified as:


NORAD ID: 57651
Int'l Code: 2023-122V
Perigee: 565.4 km
Apogee: 566.9 km
Inclination: 43.0 °
Period: 95.8 minutes
Semi major axis: 6937 km
RCS: Unknown
Launch date: August 17, 2023
Source: United States (US)
Launch site: AIR FORCE EASTERN TEST RANGE (AFETR)
Your satellite tracking list
Your tracking list is empty




NASA's NSSDC Master Catalog

Two Line Element Set (TLE):
1 57651U 23122V   25169.09442220  .00004994  00000-0  38439-3 0  9996
2 57651  43.0037  79.3285 0001089 264.9603  95.1115 15.02548180102475
Source of the keplerian elements: AFSPC